Auburn, IN

2:53 AM EDT on June 26, 2017 (GMT -0400)
Auburn

Weather History for KGWB - December, 2012

Change the Weather History Date:

Saturday, December 8, 2012

  Actual Average (KFWA) Record (KFWA)
Temperature  
Mean Temperature 38 °F -  
Max Temperature 44 °F 39 °F 65 °F (1946)
Min Temperature 33 °F 26 °F -2 °F (1977)
Degree Days  
Heating Degree Days 26    
Moisture  
Dew Point 38 °F    
Average Humidity 93    
Maximum Humidity 100    
Minimum Humidity 87    
Precipitation  
Precipitation 0.08 in - - ()
Sea Level Pressure  
Sea Level Pressure 29.93 in    
Wind  
Wind Speed 5 mph (North)    
Max Wind Speed 12 mph    
Max Gust Speed 16 mph    
Visibility 5 miles    
Events Fog , Rain    
Averages and records for this station are not official NWS values.
T = Trace of Precipitation, MM = Missing Value Source: NWS Daily Summary

Daily Weather History Graph

Daily Weather History Graph

Search for Another Location

Airport or City:

Trip Planner

Search our weather history database for the weather conditions in past years. The results will help you decide how hot, cold, wet, or windy it might be!

Date:

Astronomy

Dec. 08, 2012 Rise Set
Actual Time 7:53 AM EST 5:10 PM EST
Civil Twilight 7:22 AM EST 5:41 PM EST
Nautical Twilight 6:48 AM EST 6:16 PM EST
Astronomical Twilight 6:14 AM EST 6:50 PM EST
Moon 2:14 AM EST (12/8) 1:42 PM EST (12/8)
Length of Visible Light 10h 19m
Length of Day
9h 17m
Waning Crescent, 28% of the Moon is Illuminated
Dec 8
Waning Crescent
Dec 13
New
Dec 20
First Quarter
Dec 28
Full
Jan 4
Last Quarter

Hourly Weather History & Observations

Time (EST) Temp. Windchill Dew Point Humidity Pressure Visibility Wind Dir Wind Speed Gust Speed Precip Events Conditions
12:15 AM 42.8 °F 38.0 °F 41.0 °F 93% 29.83 in 2.0 mi ENE 8.1 mph - N/A Rain Light Rain
12:35 AM 42.8 °F 40.1 °F 41.0 °F 93% 29.83 in 2.0 mi NNE 4.6 mph - 0.01 in Rain Rain
12:55 AM 42.8 °F 40.1 °F 41.0 °F 93% 29.83 in 2.0 mi NNE 4.6 mph - 0.03 in Rain Rain
1:15 AM 42.8 °F 39.3 °F 41.0 °F 93% 29.83 in 2.0 mi NNE 5.8 mph - 0.02 in Rain Rain
1:35 AM 42.8 °F 40.1 °F 41.0 °F 93% 29.82 in 2.0 mi NNE 4.6 mph - 0.02 in Rain Rain
1:55 AM 42.8 °F 40.1 °F 41.0 °F 93% 29.82 in 1.8 mi NNE 4.6 mph - 0.03 in   Drizzle
2:15 AM 42.8 °F 40.1 °F 41.0 °F 93% 29.82 in 1.8 mi NE 4.6 mph - N/A   Drizzle
2:35 AM 42.8 °F - 41.0 °F 93% 29.83 in 1.8 mi Calm Calm - N/A   Drizzle
2:55 AM 42.8 °F 41.1 °F 41.0 °F 93% 29.82 in 1.5 mi NE 3.5 mph - N/A   Drizzle
3:15 AM 42.8 °F - 41.0 °F 93% 29.83 in 1.8 mi Calm Calm - N/A Rain Light Rain
3:35 AM 42.8 °F - 41.0 °F 93% 29.83 in 1.2 mi Calm Calm - 0.01 in Rain Rain
3:55 AM 42.8 °F - 41.0 °F 93% 29.83 in 0.8 mi Calm Calm - 0.01 in Rain Rain
4:15 AM 42.8 °F - 41.0 °F 93% 29.81 in 1.5 mi Calm Calm - 0.01 in   Light Drizzle
4:35 AM 42.8 °F - 41.0 °F 93% 29.82 in 1.5 mi Calm Calm - 0.01 in   Overcast
4:55 AM 42.8 °F 41.1 °F 41.0 °F 93% 29.81 in 1.2 mi NNW 3.5 mph - 0.01 in   Overcast
5:15 AM 42.8 °F - 41.0 °F 93% 29.81 in 1.5 mi Calm Calm - N/A   Overcast
5:35 AM 42.8 °F - 41.0 °F 93% 29.81 in 1.2 mi Calm Calm - N/A   Overcast
5:55 AM 42.8 °F - 41.0 °F 93% 29.82 in 1.0 mi Calm Calm - N/A   Overcast
6:15 AM 42.8 °F - 41.0 °F 93% 29.83 in 1.0 mi Calm Calm - N/A   Overcast
6:55 AM 42.8 °F - 41.0 °F 93% 29.83 in 0.8 mi Calm Calm - N/A   Overcast
7:15 AM 42.8 °F - 41.0 °F 93% 29.84 in 0.5 mi Calm Calm - N/A Fog Fog
7:35 AM 42.8 °F - 41.0 °F 93% 29.84 in 0.5 mi Calm Calm - N/A Fog Fog
7:55 AM 42.8 °F 41.1 °F 41.0 °F 93% 29.85 in 0.5 mi WNW 3.5 mph - N/A Fog Fog
8:15 AM 42.8 °F - 41.0 °F 93% 29.85 in 0.2 mi Calm Calm - N/A Fog Fog
8:35 AM 42.8 °F - 41.0 °F 93% 29.85 in 0.2 mi Calm Calm - N/A Fog Fog
8:55 AM 42.8 °F 41.1 °F 41.0 °F 93% 29.87 in 0.2 mi West 3.5 mph - N/A Fog Fog
9:15 AM 42.8 °F 40.1 °F 41.0 °F 93% 29.86 in 0.2 mi WNW 4.6 mph - N/A Fog Fog
9:35 AM 42.8 °F 38.6 °F 41.0 °F 93% 29.88 in 0.2 mi West 6.9 mph - N/A Fog Fog
9:55 AM 42.8 °F 40.1 °F 41.0 °F 93% 29.88 in 0.2 mi WNW 4.6 mph - N/A Fog Fog
10:15 AM 42.8 °F 41.1 °F 42.8 °F 100% 29.89 in 1.0 mi WNW 3.5 mph - N/A   Overcast
10:35 AM 42.8 °F 40.1 °F 42.8 °F 100% 29.89 in 2.5 mi West 4.6 mph - N/A   Overcast
10:55 AM 42.8 °F 40.1 °F 42.8 °F 100% 29.90 in 4.0 mi WNW 4.6 mph - N/A   Overcast
11:15 AM 42.8 °F 39.3 °F 42.8 °F 100% 29.90 in 5.0 mi WNW 5.8 mph - N/A   Overcast
11:55 AM 44.6 °F 41.4 °F 42.8 °F 93% 29.90 in 7.0 mi WNW 5.8 mph - N/A   Overcast
12:15 PM 44.6 °F 40.7 °F 42.8 °F 93% 29.90 in 7.0 mi WNW 6.9 mph - N/A   Overcast
12:35 PM 42.8 °F 40.1 °F 41.0 °F 93% 29.90 in 7.0 mi NW 4.6 mph - N/A   Overcast
12:55 PM 42.8 °F 37.0 °F 41.0 °F 93% 29.90 in 4.0 mi North 10.4 mph - N/A   Overcast
1:15 PM 41.0 °F 35.8 °F 39.2 °F 93% 29.91 in 3.0 mi NNW 8.1 mph - N/A   Overcast
1:35 PM 41.0 °F 34.7 °F 37.4 °F 87% 29.92 in 3.0 mi NW 10.4 mph - N/A   Overcast
1:55 PM 41.0 °F 35.8 °F 37.4 °F 87% 29.93 in 3.0 mi North 8.1 mph - N/A   Overcast
2:15 PM 41.0 °F 35.8 °F 37.4 °F 87% 29.95 in 5.0 mi North 8.1 mph - N/A   Overcast
2:55 PM 39.2 °F 34.2 °F 37.4 °F 93% 29.97 in 7.0 mi NNW 6.9 mph - N/A   Overcast
3:15 PM 37.4 °F 30.3 °F 35.6 °F 93% 29.98 in 10.0 mi North 10.4 mph - N/A   Overcast
3:35 PM 37.4 °F 31.4 °F 35.6 °F 93% 29.99 in 10.0 mi North 8.1 mph - N/A   Overcast
3:55 PM 37.4 °F 31.4 °F 35.6 °F 93% 30.00 in 10.0 mi NNW 8.1 mph - N/A   Overcast
4:15 PM 37.4 °F 30.3 °F 35.6 °F 93% 30.01 in 10.0 mi North 10.4 mph - N/A   Overcast
4:35 PM 37.4 °F 30.8 °F 33.8 °F 87% 30.02 in 10.0 mi NNE 9.2 mph - N/A   Overcast
4:55 PM 37.4 °F 32.1 °F 33.8 °F 87% 30.02 in 7.0 mi North 6.9 mph - N/A   Overcast
5:15 PM 35.6 °F 29.9 °F 33.8 °F 93% 30.03 in 10.0 mi North 6.9 mph - N/A   Overcast
5:35 PM 35.6 °F 30.7 °F 33.8 °F 93% 30.05 in 10.0 mi NNE 5.8 mph - N/A   Overcast
5:55 PM 35.6 °F 31.7 °F 33.8 °F 93% 30.05 in 10.0 mi NE 4.6 mph - N/A   Overcast
6:15 PM 35.6 °F 31.7 °F 33.8 °F 93% 30.05 in 10.0 mi NNE 4.6 mph - N/A   Overcast
6:35 PM 35.6 °F 31.7 °F 33.8 °F 93% 30.06 in 10.0 mi NNE 4.6 mph - N/A   Overcast
6:55 PM 35.6 °F 32.8 °F 32.0 °F 87% 30.06 in 10.0 mi NE 3.5 mph - N/A   Mostly Cloudy
7:15 PM 33.8 °F 28.6 °F 32.0 °F 93% 30.06 in 10.0 mi NNE 5.8 mph - N/A   Scattered Clouds
7:55 PM 33.8 °F 29.6 °F 32.0 °F 93% 30.08 in 10.0 mi NNE 4.6 mph - N/A   Clear
8:15 PM 33.8 °F 27.7 °F 32.0 °F 93% 30.08 in 10.0 mi NE 6.9 mph - N/A   Clear
8:35 PM 33.8 °F 28.6 °F 32.0 °F 93% 30.09 in 10.0 mi NE 5.8 mph - N/A   Clear
8:55 PM 33.8 °F 26.4 °F 32.0 °F 93% 30.09 in 10.0 mi NE 9.2 mph - N/A   Clear
9:15 PM 33.8 °F 27.7 °F 32.0 °F 93% 30.10 in 10.0 mi NE 6.9 mph - N/A   Clear
9:35 PM 33.8 °F 27.7 °F 32.0 °F 93% 30.10 in 10.0 mi ENE 6.9 mph - N/A   Scattered Clouds
9:55 PM 33.8 °F 26.4 °F 32.0 °F 93% 30.10 in 10.0 mi NE 9.2 mph - N/A   Mostly Cloudy
10:15 PM 33.8 °F 25.8 °F 32.0 °F 93% 30.10 in 10.0 mi NE 10.4 mph - N/A   Mostly Cloudy
10:35 PM 33.8 °F 25.3 °F 32.0 °F 93% 30.10 in 10.0 mi ENE 11.5 mph - N/A   Mostly Cloudy
10:55 PM 33.8 °F 25.3 °F 32.0 °F 93% 30.10 in 10.0 mi ENE 11.5 mph 16.1 mph N/A   Mostly Cloudy
11:15 PM 33.8 °F 26.4 °F 32.0 °F 93% 30.12 in 10.0 mi ENE 9.2 mph - N/A   Mostly Cloudy
11:35 PM 33.8 °F 26.4 °F 32.0 °F 93% 30.12 in 10.0 mi NE 9.2 mph - N/A   Overcast